Location: Newark
(41.9364°N, 2.8061°E)
Time: 03:54:44
(UTC+00:00)

A-11 Canister half - Pass Details

Date: 25 February 2020
Orbit: 1517 x 1683 km, 47.2° (Epoch: 04 April)

Event Time Altitude Azimuth Distance (km) Brightness Sun altitude
Rises 18:45:43 0° 286° (WNW) 4,879 13.2 -14.2°
Reaches altitude 10° 18:48:56 10° 289° (WNW) 3,871 12.3 -14.8°
Maximum altitude 18:58:47 70° 13° (NNE) 1,676 9.1 -16.6°
Enters shadow 19:05:08 24° 92° (E) 2,796 9.7 -17.8°
